Location: Multiple Mirror Telescope
(31.6889°N, 110.8853°W)
Time: 09:43:27
(UTC-07:00)

Hubble Space Telescope - Pass Details

Date: 05 June 2024
Orbit: 511 x 515 km, 28.5° (Epoch: 14 June)

Event Time Altitude Azimuth Distance (km) Brightness Sun altitude
Rises 20:49:45 0° 261° (W) 2,612 4.9 -15.6°
Reaches altitude 10° 20:53:04 10° 232° (SW) 1,723 3.5 -16.1°
Maximum altitude 20:54:51 13° 205° (SSW) 1,558 3.0 -16.4°
Enters shadow 20:55:34 12° 193° (SSW) 1,584 2.9 -16.5°
